COSMOS 2251 DEB

Satellite information

Favourite Embed

Satellite Type and Status

DEBRISIN ORBIT

Key statistics

Satellite COSMOS 2251 DEB at a glance.

Uptime

11709

Days in orbit

Revolutions

≈ 14.8

Per day

Orbit

LEO

Low Earth Orbit

Inclination

74.0

Latest

Satellite identification and parameters

Extended collection of information and parameters for COSMOS 2251 DEB.

Object identification

Identified? True

Debris? True

Object name: COSMOS 2251 DEB

International designator: 1993-036ACX

Object number (NORAD): 34884

Object ID (CCSDS): 34884

Country: COMMONWEALTH OF INDEPENDENT STATES (CIS)

Current information (Y/N): Y

RCS size: SMALL

Orbital parameters

Period: 97.187 minutes

Inclination: 74.0211 deg

SMA: 7002.145 km

Apoapsis: 633.897 km

Periapsis: 614.123 km

RAAN: 13.0233 deg

Eccentricy: 0.001412

Argument of periapsis: 134.2173 deg

Mean anomaly: 288.2749 deg

Mean motion: 14.81685908 rev/day

Mean motion (dot): 0.00014263 rev/day2

B* drag term: 0.0018084 1/REarth

Two-line elements (TLE)

Creation date: July 6, 2025, 6:05 p.m.

Reference frame: TEME

Reference center: EARTH

Epoch: July 6, 2025, 2:36 p.m. UTC

TLE line 0: 0 COSMOS 2251 DEB

TLE line 1: 1 34884U 93036ACX 25187.60878360 .00014263 00000-0 18084-2 0 9998

TLE line 2: 2 34884 74.0211 13.0233 0014120 134.2173 288.2749 14.81685908854439

Live tracking on map

Real-time ground track for satellite COSMOS 2251 DEB.

In-orbit conjunctions

A list of the most updated potential collisions computed for object COSMOS 2251 DEB.

Target Orbit TCA Probability of collision Miss distance Type
DELTA 1 DEB SSO 2024-09-26 10:09:40 0.0001013409 915.0 (m) DEBRIS
CZ-6A DEB SSO 2024-06-23 14:42:42 0.0001829933 115.0 (m) DEBRIS

Associated space launch

Military communications satellite. Destroyed in a collision with Iridium 33.

COSMOS 2251 DEB was lifted into orbit during the mission ‘Kosmos-3M | Strela-2M 51’, on board a Kosmos-3M space rocket.

The launch took place on June 16, 1993, 4:17 a.m. from 132/1 (132L).

For more information about the launch, click the button.

Launch to space Kosmos-3M | Strela-2M 51
Kosmos-3M | Strela-2M 51

Agency: N/A

Status: Launch Successful

Launch date: June 16, 1993, 4:17 a.m. UTC

Rocket: Kosmos-3M

Launch pad: 132/1 (132L)

Location: Plesetsk Cosmodrome, Russian Federation

...

Latest news about this satellite

There are no fresh news available about this satellite. Check back as we update our databases every day.


Newsletter sign-up

Weekly statistics, charts and insights to help you stay on top of the space industry.